TimeEDT,TemperatureF,Dew PointF,Humidity,Sea Level PressureIn,VisibilityMPH,Wind Direction,Wind SpeedMPH,Gust SpeedMPH,PrecipitationIn,Events,Conditions,WindDirDegrees,DateUTC
12:53 AM,59.0,57.0,93,30.25,10.0,Calm,Calm,-,N/A,,Clear,0,2013-08-25 04:53:00
1:53 AM,59.0,57.0,93,30.24,10.0,Calm,Calm,-,N/A,,Clear,0,2013-08-25 05:53:00
2:53 AM,57.9,55.9,93,30.24,10.0,Calm,Calm,-,N/A,,Clear,0,2013-08-25 06:53:00
3:53 AM,57.0,55.0,93,30.25,10.0,Calm,Calm,-,N/A,,Clear,0,2013-08-25 07:53:00
4:53 AM,57.0,54.0,89,30.26,8.0,Calm,Calm,-,N/A,,Clear,0,2013-08-25 08:53:00
5:53 AM,55.9,54.0,93,30.27,10.0,Calm,Calm,-,N/A,,Clear,0,2013-08-25 09:53:00
6:53 AM,55.9,55.0,97,30.29,10.0,Calm,Calm,-,N/A,,Clear,0,2013-08-25 10:53:00
7:53 AM,59.0,57.0,93,30.31,10.0,Calm,Calm,-,N/A,,Clear,0,2013-08-25 11:53:00
8:53 AM,69.1,63.0,81,30.32,10.0,SSE,3.5,-,N/A,,Clear,150,2013-08-25 12:53:00
9:53 AM,73.9,62.1,66,30.32,10.0,SSE,4.6,-,N/A,,Clear,160,2013-08-25 13:53:00
10:53 AM,79.0,61.0,54,30.31,10.0,SSE,6.9,-,N/A,,Clear,160,2013-08-25 14:53:00
11:53 AM,82.0,57.9,44,30.31,10.0,SSW,6.9,-,N/A,,Clear,200,2013-08-25 15:53:00
12:53 PM,84.0,55.9,38,30.30,10.0,Calm,Calm,-,N/A,,Clear,0,2013-08-25 16:53:00
1:53 PM,84.9,55.0,36,30.28,10.0,SSE,6.9,-,N/A,,Clear,160,2013-08-25 17:53:00
2:53 PM,86.0,55.9,36,30.26,10.0,Variable,4.6,-,N/A,,Clear,0,2013-08-25 18:53:00
3:53 PM,86.0,53.1,32,30.25,10.0,South,4.6,-,N/A,,Clear,170,2013-08-25 19:53:00
4:53 PM,87.1,52.0,30,30.24,10.0,SE,3.5,-,N/A,,Clear,140,2013-08-25 20:53:00
5:53 PM,86.0,54.0,33,30.23,10.0,Calm,Calm,-,N/A,,Clear,0,2013-08-25 21:53:00
6:53 PM,84.9,55.0,36,30.22,10.0,Calm,Calm,-,N/A,,Clear,0,2013-08-25 22:53:00
7:53 PM,78.1,63.0,60,30.22,10.0,Calm,Calm,-,N/A,,Clear,0,2013-08-25 23:53:00
8:53 PM,70.0,64.9,84,30.22,10.0,Calm,Calm,-,N/A,,Clear,0,2013-08-26 00:53:00
9:53 PM,66.0,62.1,87,30.24,10.0,Calm,Calm,-,N/A,,Clear,0,2013-08-26 01:53:00
10:53 PM,64.0,61.0,90,30.25,10.0,Calm,Calm,-,N/A,,Clear,0,2013-08-26 02:53:00
11:53 PM,64.0,61.0,90,30.24,10.0,Calm,Calm,-,N/A,,Clear,0,2013-08-26 03:53:00